Terminal Aerodrome Forecast
Issued by NWS Anchorage, AK

Home | Current Version | Previous Version | Text Only | Print | Product List | Glossary On
Versions: 1 2 3 4 5 6 7 8 9 10 11 12 13 14 15 16 17 18 19 20 21 22 23 24 25 26 27 28 29 30 31 32 33 34 35 36 37 38 39 40 41 42 43 44 45 46 47 48 49 50
000
FTAK31 PANC 021508 AAC
TAFANC
TAF AMD
PANC 021508Z 0215/0318 17003KT P6SM VCFG FEW005 OVC170
      TEMPO 0215/0217 3SM BR
     FM021700 02006KT P6SM FEW003 BKN120
     FM030600 01005KT P6SM VCSH SCT040 BKN060
     FM030900 36005KT P6SM -SHRASN SCT030 BKN050=

USA.gov is the U.S. government's official web portal to all federal, state and local government web resources and services.